Location: Jaite
(41.2884°N, 81.5737°W)
Time: 11:30:24
(UTC+00:00)

Cosmos 1464 Rocket - Pass Details

Date: 15 November 2025
Orbit: 950 x 1001 km, 82.9° (Epoch: 11 December)

Event Time Altitude Azimuth Distance (km) Brightness Sun altitude
Rises 11:37:27 0° 347° (NNW) 3,646 6.7 -7.4°
Reaches altitude 10° 11:40:01 10° 343° (NNW) 2,691 6.0 -6.9°
Maximum altitude 11:45:55 51° 269° (W) 1,177 4.1 -5.9°
Drops below altitude 10° 11:51:46 10° 195° (SSW) 2,667 6.4 -4.8°
Sets 11:54:19 0° 190° (S) 3,609 7.1 -4.4°
